#timestamp,LO_Frequency,Hit,StdDev 
1547359215.1,286046998.1,N
1547359235.8,286046998.3,N
1547359255.7,286046999.6,N
1547359275.5,286046998.6,N
1547359295.4,286047000.4,N
1547359315.2,286047002.5,N
1547359335.0,286047000.3,N
1547359335.9,286047000.3,N
1547359355.8,286046999.8,N
1547359375.6,286047000.1,N
1547359395.5,286047000.0,N
1547359415.3,286046998.2,N
1547359435.1,286047000.6,N
1547359455.9,286047000.8,N
1547359475.7,286046999.7,N
1547359495.5,286047000.1,N
1547359515.4,286047000.6,N
1547359535.2,286046998.2,N
1547359555.1,286046998.8,N
1547359556.0,286046998.8,N
1547359575.8,286047000.0,N
1547359595.6,286046998.5,N
1547359615.5,286047002.7,N
1547359635.3,286047001.8,N
1547359655.1,286047000.1,N
1547359675.9,286046998.5,N
1547359695.7,286046998.2,N
1547359715.6,286047000.9,N
1547359735.4,286046998.6,N
1547359755.2,286046996.6,N
1547359775.1,286046999.0,N
1547359776.0,286046999.0,N
1547359795.8,286046998.5,N
1547359815.6,286046999.0,N
1547359835.5,286046998.8,N
1547359855.3,286046996.9,N
1547359875.2,286046998.3,N
1547359895.9,286046999.4,N
1547359915.7,286046998.3,N
1547359935.6,286047001.1,N
1547359955.4,286047000.8,N
1547359975.3,286046998.9,N
1547359995.1,286046999.3,N
1547359996.0,286046999.3,N
1547360015.8,286046996.6,N
1547360035.7,286046998.0,N
1547360055.5,286046997.5,N
1547360075.4,286046996.7,N
1547360095.2,286046998.0,N
1547360115.0,286046997.6,N
1547360115.9,286046997.6,N
1547360135.8,286046995.0,Y
1547360155.6,286046997.8,P
1547360175.4,286046995.1,P
1547360195.3,286046997.2,N
1547360215.1,286046997.3,N
1547360235.9,286046998.3,N
1547360255.7,286046996.5,N
1547360275.5,286046996.8,N
1547360295.4,286046996.7,Y
1547360315.2,286047000.3,P
1547360335.1,286047002.8,N
1547360336.0,286047002.8,N
1547360355.8,286047004.4,N
1547360375.6,286047001.7,N
1547360395.5,286047004.3,N
1547360415.3,286047003.0,N
1547360435.1,286047007.5,Y
1547360455.9,286047001.8,P
1547360475.7,286047001.5,P
1547360495.6,286047004.0,P
1547360515.4,286047005.8,Y
1547360535.2,286047002.0,P
1547360555.1,286047002.2,P
1547360556.0,286047002.2,P
1547360575.8,286047000.3,N
1547360595.7,286047003.8,Y
1547360615.5,286047000.4,P
1547360635.3,286046996.9,P
1547360655.2,286046996.8,N
1547360675.0,286046995.2,N
1547360675.9,286046995.2,N
1547360695.8,286046996.7,N
1547360715.6,286046996.8,N
1547360735.4,286046996.7,N
1547360755.3,286046996.9,N
1547360775.1,286046997.5,N
1547360795.8,286046997.1,N
1547360815.7,286046997.5,N
1547360835.5,286046997.8,N
1547360855.4,286046995.5,N
1547360875.2,286046994.9,N
1547360895.0,286046999.3,N
1547360895.9,286046999.3,N
1547360915.8,286046999.1,N
1547360935.6,286046998.5,N
1547360955.5,286046996.9,N
1547360975.3,286046996.9,N
1547360995.1,286046998.4,N
1547361015.9,286047000.0,N
1547361035.7,286047000.8,N
1547361055.6,286047002.8,N
1547361075.4,286047000.1,N
1547361095.2,286047000.2,N
1547361115.1,286047002.6,N
1547361116.0,286047002.6,N
1547361135.8,286047000.3,N
1547361155.6,286047001.6,N
1547361175.5,286047001.5,N
1547361195.3,286047002.0,N
1547361215.2,286047000.6,N
1547361235.0,286047000.5,N
1547361235.9,286047000.5,N
1547361255.7,286047001.1,N
1547361275.6,286047002.6,N
1547361295.4,286047004.2,N
1547361315.3,286047001.9,N
1547361335.1,286047001.4,N
1547361355.8,286047002.6,N
1547361375.7,286047001.3,N
1547361395.5,286047002.8,N
1547361415.4,286047004.0,N
1547361435.2,286047003.0,N
1547361455.0,286047004.3,N
1547361475.1,286047001.7,N
1547361476.0,286047001.7,N
1547361495.8,286047002.6,N
1547361515.7,286047000.0,N
1547361535.5,286046998.1,N
1547361555.3,286047000.3,N
1547361575.2,286047000.1,N
1547361595.0,286046999.9,N
1547361595.9,286046999.9,N
1547361615.8,286047002.1,N
1547361635.6,286047004.2,N
1547361655.4,286047001.6,N
1547361675.3,286047001.5,N
1547361695.1,286047002.9,N
1547361715.9,286047002.9,N
1547361735.7,286047003.0,N
1547361755.5,286047003.1,N
1547361775.4,286047006.0,Y
1547361795.2,286047003.7,P
1547361815.0,286047003.6,P
1547361815.9,286047003.6,P
1547361835.8,286047003.4,Y
1547361855.6,286047000.9,P
1547361875.5,286047000.7,N
1547361895.3,286046998.7,N
1547361915.1,286046996.5,N
1547361935.9,286046996.6,N
1547361955.7,286046999.0,N
1547361975.6,286047001.0,N
1547361995.4,286047000.9,N
1547362015.2,286046999.8,N
1547362035.1,286047002.3,N
1547362036.0,286047002.3,N
1547362055.8,286047002.7,N
1547362075.6,286046999.9,N
1547362095.5,286046998.2,N
1547362115.3,286046999.8,N
1547362135.2,286047002.3,N
1547362155.9,286047000.1,N
1547362205.8,286047000.3,E
1547362215.7,286047000.2,N
1547362235.5,286047002.7,P
1547362255.4,286047000.2,N
1547362275.2,286046999.9,N
1547362295.0,286047000.5,N
1547362295.9,286047000.5,N
1547362315.8,286047000.9,N
1547362335.6,286047002.8,Y
1547362355.5,286046998.3,P
1547362375.3,286047000.0,N
1547362395.1,286047001.8,N
1547362415.9,286047002.4,N
1547362435.7,286047000.2,N
1547362455.5,286046999.8,N
1547362475.4,286047001.9,N
1547362495.2,286047004.4,Y
1547362515.1,286047000.3,P
1547362516.0,286047000.3,N
1547362535.8,286046998.7,P
1547362555.6,286046999.4,N
1547362575.5,286046998.6,N
1547362595.3,286047000.3,N
1547362615.2,286047000.0,N
1547362635.9,286047000.8,N
1547362655.7,286047002.1,N
1547362675.6,286047001.7,N
1547362695.4,286046999.7,N
1547362715.3,286047000.0,N
1547362735.1,286047002.1,N
1547362736.0,286047002.1,N
1547362755.8,286047002.7,N
1547362775.7,286047000.2,N
1547362795.5,286046999.8,N
